{"data":{"norad_id":53925,"intl_designator":"2022-119AR","name":"STARLINK-5011","alt_names":[],"object_type":"PAYLOAD","status":"ACTIVE","operator":null,"country":"US","launch_date":"2022-09-24","launch_site_code":"AFETR","launch_vehicle":null,"mission":null,"orbit_class":"UNKNOWN","rcs_meters":null,"size_class":null,"mass_kg":null,"dimensions":null,"purposes":["comms"],"wikipedia_slug":null,"has_3d_model":false,"image_url":null,"decayed_at":null,"tle_current":{"epoch":"2026-09-20T02:58:49.622016Z","epoch_age_seconds":119408,"freshness":"FRESH","line1":"1 53925U 22119AR  26263.12418544  .00000272  00000+0  35200-4 0  9991","line2":"2 53925  53.1592 160.2080 0001227  92.9006 267.2126 15.08835839221186","mean_motion":15.08835839,"eccentricity":0.0001227,"inclination_deg":53.1592,"raan_deg":160.208,"arg_perigee_deg":92.9006,"mean_anomaly_deg":267.2126,"bstar":3.52e-5,"rev_number":22118,"period_min":95.437817871186,"perigee_km":538.90728202141,"apogee_km":540.60493298999,"semimajor_km":6917.8931075057,"source":"CELESTRAK","updated_at":"2026-09-21T09:00:33.036214Z"}}}